Tracking 35237 objects as of 6-Sep-2026
HD Live streaming from Space Station
objects crossing your sky now

COSMOS 1653 DEB


COSMOS 1653 DEB is no longer on orbit


NORAD ID: 15791
Int'l Code: 1985-038D
Launch date: May 22, 1985
Source: Commonwealth of Independent States (former USSR) (CIS)
Launch site: PLESETSK MISSILE AND SPACE COMPLEX (PKMTR)
Decay date: 1985-06-06

Note: This is SATELLITE DEBRIS
Your satellite tracking list
Your tracking list is empty




NASA's NSSDC Master Catalog

Two Line Element Set (TLE):
1 15791U 85038  D 85157.08859336  .20205378 -21722-5 +17429-1 0  9996
2 15791 082.3868 018.2109 0027763 335.0853 025.1188 16.12397568002378
Source of the keplerian elements: AFSPC